TimeEDT,TemperatureF,Dew PointF,Humidity,Sea Level PressureIn,VisibilityMPH,Wind Direction,Wind SpeedMPH,Gust SpeedMPH,PrecipitationIn,Events,Conditions,WindDirDegrees,DateUTC
12:15 AM,66.2,61.3,84,30.11,10.0,Calm,Calm,-,N/A,,Clear,0,2013-09-15 04:15:00
12:35 AM,65.7,61.3,86,30.11,10.0,Calm,Calm,-,N/A,,Mostly Cloudy,0,2013-09-15 04:35:00
12:55 AM,66.2,60.8,83,30.11,10.0,Calm,Calm,-,N/A,,Scattered Clouds,0,2013-09-15 04:55:00
1:15 AM,64.8,60.8,87,30.11,10.0,Calm,Calm,-,N/A,,Clear,0,2013-09-15 05:15:00
1:35 AM,64.9,60.8,86,30.11,10.0,Calm,Calm,-,N/A,,Clear,0,2013-09-15 05:35:00
1:55 AM,64.6,60.6,87,30.12,10.0,Calm,Calm,-,N/A,,Clear,0,2013-09-15 05:55:00
2:15 AM,65.1,61.0,86,30.12,10.0,NNE,4.6,-,N/A,,Clear,30,2013-09-15 06:15:00
2:35 AM,64.8,61.0,88,30.12,10.0,NE,3.5,-,N/A,,Clear,40,2013-09-15 06:35:00
2:55 AM,64.4,61.2,89,30.12,10.0,NNE,4.6,-,N/A,,Clear,30,2013-09-15 06:55:00
3:15 AM,64.6,61.2,89,30.12,10.0,NNE,3.5,-,N/A,,Clear,30,2013-09-15 07:15:00
3:35 AM,64.4,61.2,89,30.12,10.0,NNE,3.5,-,N/A,,Clear,30,2013-09-15 07:35:00
3:55 AM,64.0,61.2,90,30.13,10.0,NNE,4.6,-,N/A,,Clear,30,2013-09-15 07:55:00
4:15 AM,64.4,61.3,90,30.13,10.0,NNE,4.6,-,N/A,,Mostly Cloudy,30,2013-09-15 08:15:00
4:35 AM,64.4,61.3,90,30.13,10.0,NNE,4.6,-,N/A,,Mostly Cloudy,30,2013-09-15 08:35:00
4:55 AM,64.0,61.3,91,30.13,10.0,NE,4.6,-,N/A,,Scattered Clouds,40,2013-09-15 08:55:00
5:15 AM,64.0,61.2,90,30.13,10.0,NNE,5.8,-,N/A,,Scattered Clouds,30,2013-09-15 09:15:00
5:35 AM,64.4,61.3,90,30.14,10.0,NE,5.8,-,N/A,,Mostly Cloudy,40,2013-09-15 09:35:00
5:55 AM,64.4,61.3,90,30.14,10.0,NE,4.6,-,N/A,,Mostly Cloudy,40,2013-09-15 09:55:00
6:15 AM,64.4,61.5,90,30.15,10.0,NE,4.6,-,N/A,,Mostly Cloudy,40,2013-09-15 10:15:00
6:35 AM,64.6,61.3,89,30.15,10.0,NE,3.5,-,N/A,,Mostly Cloudy,40,2013-09-15 10:35:00
6:55 AM,64.0,61.3,91,30.15,10.0,NE,3.5,-,N/A,,Mostly Cloudy,50,2013-09-15 10:55:00
7:15 AM,63.9,61.3,91,30.16,10.0,NE,4.6,-,N/A,,Mostly Cloudy,40,2013-09-15 11:15:00
7:35 AM,64.4,61.3,90,30.16,10.0,NE,4.6,-,N/A,,Mostly Cloudy,40,2013-09-15 11:35:00
7:55 AM,64.8,61.7,90,30.17,10.0,NE,5.8,-,N/A,,Mostly Cloudy,40,2013-09-15 11:55:00
8:15 AM,66.0,62.2,88,30.17,10.0,NE,6.9,-,N/A,,Mostly Cloudy,50,2013-09-15 12:15:00
8:35 AM,66.4,62.4,87,30.18,10.0,NE,5.8,-,N/A,,Scattered Clouds,50,2013-09-15 12:35:00
8:55 AM,68.2,62.8,83,30.19,10.0,NE,6.9,-,N/A,,Scattered Clouds,50,2013-09-15 12:55:00
9:15 AM,69.4,63.0,80,30.19,10.0,ENE,6.9,-,N/A,,Clear,60,2013-09-15 13:15:00
9:35 AM,71.1,62.8,75,30.19,10.0,NE,8.1,-,N/A,,Clear,50,2013-09-15 13:35:00
9:55 AM,72.7,63.0,71,30.20,10.0,ENE,8.1,-,N/A,,Scattered Clouds,60,2013-09-15 13:55:00
10:15 AM,73.8,63.5,70,30.20,10.0,ENE,9.2,-,N/A,,Scattered Clouds,70,2013-09-15 14:15:00
10:35 AM,75.0,64.0,69,30.21,10.0,East,9.2,-,N/A,,Clear,80,2013-09-15 14:35:00
10:55 AM,76.6,64.8,67,30.21,10.0,NE,9.2,-,N/A,,Clear,50,2013-09-15 14:55:00
11:15 AM,77.0,64.4,65,30.21,10.0,NE,10.4,-,N/A,,Scattered Clouds,50,2013-09-15 15:15:00
11:35 AM,78.3,64.2,62,30.21,10.0,NE,6.9,-,N/A,,Mostly Cloudy,50,2013-09-15 15:35:00
11:55 AM,79.3,64.6,60,30.20,10.0,NE,8.1,-,N/A,,Scattered Clouds,50,2013-09-15 15:55:00
12:15 PM,80.4,64.8,59,30.20,10.0,ENE,9.2,-,N/A,,Clear,60,2013-09-15 16:15:00
12:35 PM,80.8,64.9,58,30.19,10.0,ENE,5.8,-,N/A,,Scattered Clouds,70,2013-09-15 16:35:00
12:55 PM,80.8,65.3,59,30.19,10.0,ENE,6.9,-,N/A,,Scattered Clouds,70,2013-09-15 16:55:00
1:15 PM,80.1,65.8,62,30.18,10.0,NE,5.8,-,N/A,,Clear,50,2013-09-15 17:15:00
1:35 PM,80.6,66.0,61,30.17,10.0,ENE,8.1,-,N/A,,Scattered Clouds,60,2013-09-15 17:35:00
1:55 PM,82.4,65.5,56,30.17,10.0,East,3.5,-,N/A,,Scattered Clouds,100,2013-09-15 17:55:00
2:15 PM,84.2,66.7,56,30.16,10.0,ENE,6.9,-,N/A,,Scattered Clouds,60,2013-09-15 18:15:00
2:35 PM,83.8,66.2,55,30.15,10.0,East,5.8,-,N/A,,Mostly Cloudy,90,2013-09-15 18:35:00
2:55 PM,84.4,66.6,55,30.14,10.0,East,6.9,-,N/A,,Scattered Clouds,80,2013-09-15 18:55:00
3:15 PM,83.5,64.9,53,30.14,10.0,ENE,5.8,-,N/A,,Mostly Cloudy,60,2013-09-15 19:15:00
3:35 PM,84.4,65.8,54,30.13,10.0,ESE,4.6,-,N/A,,Mostly Cloudy,110,2013-09-15 19:35:00
3:55 PM,83.5,65.3,54,30.13,10.0,ENE,3.5,-,N/A,,Mostly Cloudy,70,2013-09-15 19:55:00
4:15 PM,82.8,65.7,56,30.12,10.0,East,4.6,-,N/A,,Scattered Clouds,100,2013-09-15 20:15:00
4:35 PM,83.8,65.5,54,30.12,10.0,East,3.5,-,N/A,,Mostly Cloudy,80,2013-09-15 20:35:00
4:55 PM,83.8,65.5,54,30.12,10.0,East,4.6,-,N/A,,Mostly Cloudy,100,2013-09-15 20:55:00
5:15 PM,82.6,66.6,58,30.12,10.0,ESE,5.8,-,N/A,,Mostly Cloudy,120,2013-09-15 21:15:00
5:35 PM,83.1,66.9,58,30.11,10.0,ESE,5.8,-,N/A,,Scattered Clouds,110,2013-09-15 21:35:00
5:55 PM,81.0,67.5,63,30.12,10.0,SE,5.8,-,N/A,,Mostly Cloudy,140,2013-09-15 21:55:00
6:15 PM,80.2,68.0,66,30.12,10.0,SE,5.8,-,N/A,,Scattered Clouds,140,2013-09-15 22:15:00
6:35 PM,80.1,68.2,67,30.12,10.0,ESE,5.8,-,N/A,,Mostly Cloudy,110,2013-09-15 22:35:00
6:55 PM,78.8,68.2,70,30.12,10.0,ESE,5.8,-,N/A,,Scattered Clouds,110,2013-09-15 22:55:00
7:15 PM,77.4,68.2,73,30.13,10.0,ESE,4.6,-,N/A,,Clear,110,2013-09-15 23:15:00
7:35 PM,76.3,68.2,76,30.12,10.0,SE,5.8,-,N/A,,Clear,130,2013-09-15 23:35:00
7:55 PM,75.6,68.2,78,30.13,10.0,ESE,4.6,-,N/A,,Clear,120,2013-09-15 23:55:00
8:15 PM,74.5,68.2,81,30.13,10.0,Calm,Calm,-,N/A,,Scattered Clouds,0,2013-09-16 00:15:00
8:35 PM,73.6,68.2,83,30.14,10.0,East,3.5,-,N/A,,Scattered Clouds,90,2013-09-16 00:35:00
8:55 PM,73.4,68.5,85,30.14,10.0,Calm,Calm,-,N/A,,Scattered Clouds,0,2013-09-16 00:55:00
9:15 PM,72.5,68.5,87,30.14,10.0,Calm,Calm,-,N/A,,Scattered Clouds,0,2013-09-16 01:15:00
9:35 PM,70.7,68.2,92,30.14,10.0,Calm,Calm,-,N/A,,Clear,0,2013-09-16 01:35:00
9:55 PM,71.4,68.2,89,30.14,10.0,Calm,Calm,-,N/A,,Clear,0,2013-09-16 01:55:00
10:15 PM,71.6,68.4,89,30.15,10.0,Calm,Calm,-,N/A,,Clear,0,2013-09-16 02:15:00
10:35 PM,70.7,68.0,91,30.16,10.0,Calm,Calm,-,N/A,,Clear,0,2013-09-16 02:35:00
10:55 PM,70.3,68.2,93,30.15,10.0,Calm,Calm,-,N/A,,Clear,0,2013-09-16 02:55:00
11:15 PM,69.8,67.5,92,30.15,10.0,Calm,Calm,-,N/A,,Clear,0,2013-09-16 03:15:00
11:35 PM,68.5,66.7,94,30.15,10.0,Calm,Calm,-,N/A,,Clear,0,2013-09-16 03:35:00
11:55 PM,68.4,67.1,96,30.15,7.0,Calm,Calm,-,N/A,,Clear,0,2013-09-16 03:55:00